Location: Misciano
(43.5000°N, 11.9500°E)
Time: 10:01:07
(UTC+00:00)

Cosmos 1184 Rocket - Pass Details

Date: 13 August 2020
Orbit: 406 x 423 km, 81.2° (Epoch: 20 September)

Event Time Altitude Azimuth Distance (km) Brightness Sun altitude
Exits shadow 19:33:43 11° 176° (S) 1,444 5.1 -13.0°
Maximum altitude 19:36:48 59° 98° (E) 498 2.8 -13.4°
Drops below altitude 10° 19:40:04 10° 18° (NNE) 1,522 5.8 -13.9°
Sets 19:42:08 0° 14° (NNE) 2,392 6.9 -14.2°
